Location: Newark
(39.6867°N, 100.6772°W)
Time: 11:54:21
(UTC+00:00)

Vanguard 1 - Pass Details

Date: 15 October 2019
Orbit: 652 x 3831 km, 34.2° (Epoch: 11 November)

Event Time Altitude Azimuth Distance (km) Brightness Sun altitude
Rises 01:09:56 0° 212° (SSW) 4,026 13.7 -13.2°
Reaches altitude 10° 01:12:31 10° 202° (SSW) 3,369 13.1 -13.7°
Maximum altitude 01:20:19 34° 140° (SE) 2,814 12.0 -15.2°
Enters shadow 01:28:10 20° 94° (E) 4,351 12.7 -16.8°
Drops below altitude 10° 01:33:19 10° 83° (E) 5,667 - -17.7°
Sets 01:39:17 0° 77° (ENE) 7,169 - -18.9°
